JST892 YBCG-YBCS

Flight info

Callsign JST892
Flight time N/A
Altitude 36000
Route APAGI DCT ENLIP Y27 BN Q67 RUMKA DCT UPOLO
Aircraft A320/M-SDE3FGHIRWY/LB1

Departure

Time 2026-04-30 21:50
Airport Gold Coast Airport (YBCG)

Arrival

Time N/A
Airport Cairns International Airport (YBCS)
Time Latitude Longitude Altitude Speed Heading
2026-04-30 21:37 -28.16437 153.51156 35 ft 0 kts 150°
2026-04-30 21:40 -28.16436 153.51156 35 ft 1 kts 150°
2026-04-30 21:40 -28.16415 153.51147 35 ft 4 kts 180°
2026-04-30 21:40 -28.16393 153.51146 35 ft 2 kts 169°
2026-04-30 21:40 -28.16378 153.51140 35 ft 4 kts 82°
2026-04-30 21:41 -28.16382 153.51121 35 ft 3 kts 75°
2026-04-30 21:41 -28.16387 153.51097 35 ft 4 kts 80°
2026-04-30 21:41 -28.16388 153.51068 35 ft 4 kts 117°
2026-04-30 21:41 -28.16378 153.51059 35 ft 0 kts 189°
2026-04-30 21:44 -28.16392 153.51053 35 ft 6 kts 207°
2026-04-30 21:45 -28.16425 153.51003 35 ft 9 kts 240°
2026-04-30 21:45 -28.16459 153.50936 35 ft 11 kts 240°
2026-04-30 21:45 -28.16494 153.50854 35 ft 11 kts 270°
2026-04-30 21:45 -28.16444 153.50792 35 ft 12 kts 329°
2026-04-30 21:46 -28.16372 153.50745 35 ft 12 kts 330°
2026-04-30 21:46 -28.16295 153.50695 35 ft 13 kts 330°
2026-04-30 21:46 -28.16213 153.50643 35 ft 14 kts 330°
2026-04-30 21:46 -28.16126 153.50588 35 ft 15 kts 330°
2026-04-30 21:47 -28.16036 153.50530 35 ft 15 kts 330°
2026-04-30 21:47 -28.15953 153.50478 35 ft 14 kts 330°
2026-04-30 21:47 -28.15869 153.50424 35 ft 14 kts 330°
2026-04-30 21:47 -28.15779 153.50367 35 ft 15 kts 330°
2026-04-30 21:48 -28.15684 153.50307 35 ft 14 kts 330°
2026-04-30 21:48 -28.15617 153.50257 35 ft 12 kts 311°
2026-04-30 21:48 -28.15612 153.50170 35 ft 12 kts 243°
2026-04-30 21:48 -28.15645 153.50107 35 ft 8 kts 230°
2026-04-30 21:49 -28.15695 153.50101 35 ft 8 kts 153°
2026-04-30 21:49 -28.15702 153.50105 35 ft 0 kts 151°
2026-04-30 21:49 -28.15718 153.50115 35 ft 15 kts 151°
2026-04-30 21:49 -28.16046 153.50324 36 ft 91 kts 151°
2026-04-30 21:50 -28.16784 153.50797 38 ft 151 kts 152°
2026-04-30 21:50 -28.17711 153.51425 597 ft 152 kts 150°
2026-04-30 21:50 -28.18597 153.52023 1266 ft 143 kts 152°
2026-04-30 21:50 -28.19462 153.52577 1664 ft 143 kts 154°
2026-04-30 21:51 -28.20426 153.53070 1845 ft 162 kts 161°
2026-04-30 21:51 -28.21561 153.53492 2079 ft 181 kts 161°
2026-04-30 21:51 -28.22804 153.53960 2400 ft 196 kts 158°
2026-04-30 21:51 -28.24156 153.54515 2688 ft 216 kts 157°
2026-04-30 21:52 -28.25683 153.54894 3111 ft 236 kts 176°
2026-04-30 21:52 -28.27333 153.54393 3585 ft 260 kts 207°
2026-04-30 21:52 -28.28646 153.52914 4280 ft 272 kts 231°
2026-04-30 21:52 -28.29658 153.51081 5081 ft 277 kts 236°
2026-04-30 21:53 -28.30368 153.49014 5770 ft 288 kts 258°
2026-04-30 21:53 -28.30241 153.46758 6494 ft 296 kts 286°
2026-04-30 21:53 -28.29417 153.44613 7273 ft 298 kts 296°
2026-04-30 21:53 -28.28449 153.42514 7989 ft 302 kts 296°
2026-04-30 21:54 -28.27519 153.40380 8699 ft 303 kts 294°
2026-04-30 21:54 -28.26657 153.38180 9362 ft 306 kts 292°
2026-04-30 21:54 -28.25824 153.35944 10033 ft 309 kts 292°
2026-04-30 21:54 -28.24971 153.33693 10659 ft 313 kts 293°
2026-04-30 21:55 -28.24076 153.31399 11049 ft 325 kts 294°
2026-04-30 21:55 -28.23128 153.29005 11352 ft 339 kts 294°
2026-04-30 21:55 -28.22141 153.26511 11649 ft 353 kts 294°
2026-04-30 21:55 -28.21121 153.23922 11948 ft 365 kts 294°
2026-04-30 21:56 -28.20084 153.21282 12495 ft 368 kts 294°
2026-04-30 21:56 -28.19041 153.18622 13056 ft 371 kts 294°
2026-04-30 21:56 -28.17990 153.15945 13598 ft 373 kts 294°
2026-04-30 21:56 -28.16928 153.13247 14125 ft 376 kts 294°
2026-04-30 21:57 -28.15868 153.10554 14638 ft 379 kts 294°
2026-04-30 21:57 -28.14791 153.07822 15162 ft 381 kts 294°
2026-04-30 21:57 -28.13699 153.05057 15673 ft 384 kts 294°
2026-04-30 21:57 -28.12605 153.02289 16164 ft 386 kts 294°
2026-04-30 21:58 -28.11503 152.99499 16642 ft 389 kts 294°
2026-04-30 21:58 -28.10395 152.96694 17113 ft 392 kts 294°
2026-04-30 21:58 -28.09279 152.93871 17570 ft 394 kts 294°
2026-04-30 21:58 -28.08153 152.91024 18023 ft 397 kts 294°
2026-04-30 21:59 -28.07020 152.88165 18466 ft 399 kts 294°
2026-04-30 21:59 -28.05876 152.85283 18919 ft 401 kts 294°
2026-04-30 21:59 -28.04730 152.82395 19352 ft 403 kts 293°
2026-04-30 22:00 -28.02430 152.76606 20209 ft 407 kts 293°
2026-04-30 22:00 -28.00094 152.70734 21015 ft 411 kts 293°
2026-04-30 22:00 -27.98917 152.67778 21419 ft 413 kts 293°
2026-04-30 22:01 -27.97737 152.64816 21843 ft 413 kts 293°
2026-04-30 22:01 -27.96505 152.61867 22230 ft 415 kts 297°
2026-04-30 22:01 -27.94951 152.59151 22582 ft 419 kts 307°
2026-04-30 22:01 -27.92923 152.56771 22923 ft 422 kts 319°
2026-04-30 22:02 -27.90486 152.54894 23270 ft 425 kts 329°
2026-04-30 22:02 -27.87896 152.53272 23608 ft 427 kts 330°
2026-04-30 22:02 -27.85268 152.51687 23925 ft 429 kts 330°
2026-04-30 22:02 -27.82645 152.50069 24246 ft 431 kts 329°
2026-04-30 22:03 -27.80035 152.48386 24564 ft 432 kts 328°
2026-04-30 22:03 -27.77437 152.46662 24875 ft 433 kts 328°
2026-04-30 22:03 -27.74832 152.44928 25183 ft 435 kts 328°
2026-04-30 22:03 -27.72214 152.43209 25488 ft 436 kts 328°
2026-04-30 22:04 -27.69577 152.41506 25781 ft 438 kts 328°
2026-04-30 22:04 -27.66960 152.39827 26066 ft 439 kts 328°
2026-04-30 22:04 -27.61637 152.36394 26634 ft 441 kts 328°
2026-04-30 22:05 -27.58973 152.34665 26906 ft 443 kts 328°
2026-04-30 22:05 -27.56297 152.32930 27178 ft 444 kts 328°
2026-04-30 22:05 -27.53615 152.31196 27442 ft 445 kts 328°
2026-04-30 22:05 -27.50924 152.29458 27704 ft 446 kts 328°
2026-04-30 22:06 -27.48225 152.27719 27967 ft 447 kts 328°
2026-04-30 22:06 -27.42808 152.24229 28472 ft 449 kts 328°
2026-04-30 22:06 -27.40091 152.22476 28722 ft 450 kts 328°
2026-04-30 22:07 -27.37369 152.20720 28967 ft 452 kts 327°
2026-04-30 22:07 -27.34638 152.18961 29209 ft 453 kts 327°
2026-04-30 22:07 -27.31902 152.17203 29441 ft 454 kts 327°
2026-04-30 22:07 -27.29157 152.15441 29677 ft 455 kts 327°
2026-04-30 22:08 -27.26440 152.13696 29904 ft 456 kts 327°
2026-04-30 22:08 -27.23683 152.11924 30129 ft 457 kts 327°
2026-04-30 22:08 -27.20920 152.10149 30383 ft 456 kts 327°
2026-04-30 22:08 -27.18163 152.08380 30671 ft 456 kts 327°
2026-04-30 22:09 -27.15408 152.06614 30939 ft 455 kts 327°
2026-04-30 22:09 -27.12657 152.04854 31212 ft 454 kts 327°
2026-04-30 22:09 -27.09910 152.03097 31474 ft 454 kts 327°
2026-04-30 22:09 -27.07172 152.01346 31738 ft 453 kts 327°
2026-04-30 22:10 -27.04433 151.99593 31983 ft 452 kts 327°
2026-04-30 22:10 -27.01700 151.97844 32230 ft 452 kts 327°
2026-04-30 22:10 -26.98969 151.96098 32468 ft 451 kts 327°
2026-04-30 22:10 -26.96244 151.94359 32716 ft 450 kts 326°
2026-04-30 22:11 -26.90804 151.90890 33173 ft 449 kts 326°
2026-04-30 22:11 -26.88087 151.89158 33392 ft 449 kts 326°
2026-04-30 22:11 -26.85375 151.87431 33631 ft 448 kts 326°
2026-04-30 22:12 -26.82703 151.85730 33847 ft 447 kts 326°
2026-04-30 22:12 -26.80002 151.84011 34059 ft 447 kts 326°
2026-04-30 22:12 -26.77299 151.82291 34244 ft 446 kts 326°
2026-04-30 22:12 -26.74603 151.80577 34459 ft 445 kts 326°
2026-04-30 22:13 -26.71910 151.78867 34637 ft 445 kts 326°
2026-04-30 22:13 -26.69211 151.77154 34824 ft 445 kts 326°
2026-04-30 22:13 -26.66520 151.75445 35019 ft 444 kts 326°
2026-04-30 22:13 -26.63834 151.73741 35186 ft 444 kts 326°
2026-04-30 22:14 -26.61153 151.72042 35352 ft 443 kts 326°
2026-04-30 22:14 -26.58470 151.70342 35523 ft 443 kts 326°
2026-04-30 22:14 -26.55796 151.68647 35712 ft 442 kts 326°
2026-04-30 22:14 -26.53123 151.66956 35848 ft 441 kts 326°
2026-04-30 22:15 -26.50455 151.65269 35999 ft 441 kts 326°
2026-04-30 22:15 -26.47785 151.63582 36155 ft 440 kts 326°
2026-04-30 22:15 -26.45123 151.61900 36272 ft 440 kts 326°
2026-04-30 22:16 -26.39780 151.58526 36365 ft 443 kts 326°
2026-04-30 22:17 -26.28968 151.51710 36373 ft 451 kts 326°
2026-04-30 22:17 -26.20761 151.46549 36366 ft 452 kts 326°
2026-04-30 22:18 -26.12561 151.41399 36327 ft 450 kts 326°
2026-04-30 22:19 -26.04349 151.36248 36350 ft 454 kts 326°
2026-04-30 22:20 -25.96067 151.31064 36399 ft 455 kts 326°
2026-04-30 22:20 -25.87835 151.25922 36394 ft 450 kts 326°
2026-04-30 22:21 -25.82373 151.22554 36352 ft 450 kts 329°
2026-04-30 22:21 -25.79405 151.21388 36312 ft 458 kts 343°
2026-04-30 22:21 -25.76212 151.20944 36302 ft 464 kts 351°
2026-04-30 22:22 -25.69784 151.20358 36289 ft 467 kts 349°
2026-04-30 22:22 -25.63266 151.19854 36285 ft 474 kts 354°
2026-04-30 22:23 -25.56638 151.19923 36326 ft 478 kts 356°
2026-04-30 22:23 -25.49980 151.20028 36350 ft 478 kts 355°
2026-04-30 22:24 -25.43386 151.20005 36351 ft 475 kts 354°
2026-04-30 22:24 -25.36779 151.20004 36333 ft 473 kts 355°
2026-04-30 22:25 -25.30213 151.20042 36293 ft 470 kts 355°
2026-04-30 22:25 -25.23676 151.20059 36251 ft 469 kts 354°
2026-04-30 22:26 -25.13859 151.20080 36233 ft 473 kts 355°
2026-04-30 22:27 -25.07250 151.20102 36259 ft 476 kts 355°
2026-04-30 22:27 -24.97308 151.20127 36317 ft 479 kts 354°
2026-04-30 22:28 -24.87354 151.20159 36316 ft 475 kts 354°
2026-04-30 22:29 -24.75311 151.20191 36264 ft 470 kts 354°
2026-04-30 22:31 -24.52258 151.20253 36294 ft 478 kts 354°
2026-04-30 22:32 -24.35694 151.20302 36304 ft 474 kts 354°
2026-04-30 22:33 -24.19253 151.20346 36215 ft 471 kts 354°
2026-04-30 22:35 -24.02706 151.20391 36311 ft 479 kts 354°
2026-04-30 22:36 -23.89499 151.20309 36299 ft 468 kts 347°
2026-04-30 22:36 -23.86356 151.19617 36301 ft 455 kts 335°
2026-04-30 22:37 -23.78581 151.14372 36254 ft 434 kts 317°
2026-04-30 22:37 -23.76178 151.12370 36233 ft 434 kts 317°
2026-04-30 22:38 -23.66231 151.04785 36216 ft 444 kts 322°
2026-04-30 22:39 -23.58178 150.99600 36281 ft 450 kts 323°
2026-04-30 22:40 -23.42120 150.89190 36306 ft 444 kts 323°
2026-04-30 22:41 -23.28912 150.80655 36217 ft 440 kts 323°
2026-04-30 22:43 -23.13005 150.70400 36296 ft 449 kts 323°
2026-04-30 22:44 -23.02286 150.63509 36303 ft 445 kts 323°
2026-04-30 22:45 -22.86442 150.53334 36212 ft 441 kts 323°
2026-04-30 22:47 -22.70441 150.43101 36299 ft 447 kts 323°
2026-04-30 22:48 -22.59793 150.36302 36300 ft 441 kts 322°
2026-04-30 22:49 -22.44045 150.26265 36206 ft 439 kts 322°
2026-04-30 22:51 -22.28093 150.16136 36287 ft 443 kts 322°
2026-04-30 22:52 -22.20162 150.11106 36281 ft 439 kts 322°
2026-04-30 22:53 -22.09689 150.04477 36207 ft 435 kts 322°
2026-04-30 22:53 -22.01851 149.99515 36191 ft 440 kts 322°
2026-04-30 22:55 -21.88541 149.91120 36267 ft 443 kts 322°
2026-04-30 22:56 -21.77972 149.84463 36242 ft 438 kts 322°
2026-04-30 22:57 -21.64900 149.76241 36167 ft 438 kts 322°
2026-04-30 22:58 -21.54277 149.69580 36247 ft 444 kts 323°
2026-04-30 22:59 -21.38430 149.59658 36219 ft 436 kts 322°